Fort Drum, NY

1:09 AM EST on November 22, 2017 (GMT -0500)
Wheeler-Sack Army Air Field

Weather History for KGTB - May, 2013

Change the Weather History Date:

Wednesday, May 22, 2013

  Actual Average Record
Temperature  
Mean Temperature 69 °F -  
Max Temperature 81 °F 64 °F 81 °F (2013)
Min Temperature 57 °F 44 °F 35 °F (2006)
Cooling Degree Days 4    
Growing Degree Days 19 (Base 50)    
Moisture  
Dew Point 63 °F    
Average Humidity 87    
Maximum Humidity 100    
Minimum Humidity 64    
Precipitation  
Precipitation 0.00 in - - ()
Sea Level Pressure  
Sea Level Pressure 29.76 in    
Wind  
Wind Speed 6 mph (South)    
Max Wind Speed 18 mph    
Max Gust Speed 25 mph    
Visibility 8 miles    
Events      
Averages and records for this station are not official NWS values.
T = Trace of Precipitation, MM = Missing Value Source: NWS Daily Summary

Daily Weather History Graph

Daily Weather History Graph

Search for Another Location

Airport or City:

Trip Planner

Search our weather history database for the weather conditions in past years. The results will help you decide how hot, cold, wet, or windy it might be!

Date:

Astronomy

May. 22, 2013 Rise Set
Actual Time 5:29 AM EDT 8:30 PM EDT
Civil Twilight 4:55 AM EDT 9:04 PM EDT
Nautical Twilight 4:11 AM EDT 9:48 PM EDT
Astronomical Twilight 3:19 AM EDT 10:41 PM EDT
Moon 5:45 PM EDT 3:38 AM EDT
Length of Visible Light 16h 09m
Length of Day
15h 00m
Waxing Gibbous, 91% of the Moon is Illuminated
May 22
Waxing Gibbous
May 25
Full
May 31
Last Quarter
Jun 8
New
Jun 16
First Quarter

Hourly Weather History & Observations

Time (EDT) Temp. Heat Index Dew Point Humidity Pressure Visibility Wind Dir Wind Speed Gust Speed Precip Events Conditions
12:17 AM 59.0 °F - 59.0 °F 100% 29.78 in 10.0 mi SSE 8.1 mph - N/A   Light Drizzle
12:26 AM 59.0 °F - 59.0 °F 100% 29.78 in 10.0 mi SSE 8.1 mph - N/A   Scattered Clouds
12:58 AM 59.4 °F - 59.4 °F 100% 29.80 in 10.0 mi Calm Calm - 0.00 in   Mostly Cloudy
1:58 AM 59.5 °F - 59.5 °F 100% 29.80 in 10.0 mi Calm Calm - N/A   Clear
2:58 AM 60.4 °F - 60.4 °F 100% 29.79 in 10.0 mi South 2.3 mph - N/A   Partly Cloudy
3:13 AM 59.0 °F - 59.0 °F 100% 29.79 in 6.0 mi SSE 2.3 mph - N/A   Clear
3:23 AM 59.0 °F - 59.0 °F 100% 29.79 in 9.0 mi SSE 3.5 mph - N/A   Clear
3:33 AM 59.0 °F - 59.0 °F 100% 29.79 in 5.0 mi ESE 1.2 mph - N/A   Clear
3:38 AM 59.0 °F - 59.0 °F 100% 29.79 in 2.5 mi Calm Calm - N/A   Clear
3:43 AM 59.0 °F - 59.0 °F 100% 29.79 in 1.2 mi SE 1.2 mph - N/A   Clear
3:48 AM 59.0 °F - 59.0 °F 100% 29.79 in 1.0 mi SSE 2.3 mph - N/A   Clear
3:53 AM 57.2 °F - 57.2 °F 100% 29.79 in 1.0 mi SSE 2.3 mph - N/A   Clear
3:58 AM 57.2 °F - 57.2 °F 100% 29.79 in 1.5 mi South 4.6 mph - N/A   Clear
4:03 AM 57.2 °F - 57.2 °F 100% 29.79 in 3.0 mi South 3.5 mph - N/A   Clear
4:08 AM 57.2 °F - 57.2 °F 100% 29.79 in 10.0 mi SSE 3.5 mph - N/A   Clear
4:28 AM 57.2 °F - 57.2 °F 100% 29.79 in 8.0 mi SSE 2.3 mph - N/A   Clear
4:33 AM 57.2 °F - 57.2 °F 100% 29.79 in 2.5 mi SE 2.3 mph - N/A   Clear
4:43 AM 59.0 °F - 59.0 °F 100% 29.79 in 6.0 mi SE 3.5 mph - N/A   Clear
4:48 AM 59.0 °F - 59.0 °F 100% 29.79 in 4.0 mi SE 4.6 mph - N/A   Clear
4:58 AM 59.2 °F - 59.2 °F 100% 29.79 in 5.0 mi SSE 4.6 mph - N/A   Clear
5:13 AM 59.0 °F - 59.0 °F 100% 29.78 in 9.0 mi SSE 6.9 mph - N/A   Clear
5:58 AM 60.1 °F - 60.1 °F 100% 29.80 in 10.0 mi SE 5.8 mph - N/A   Clear
6:58 AM 62.1 °F - 62.1 °F 100% 29.80 in 9.0 mi SE 8.1 mph - N/A   Partly Cloudy
7:58 AM 64.4 °F - 64.4 °F 100% 29.80 in 10.0 mi SE 5.8 mph - N/A   Scattered Clouds
8:58 AM 67.1 °F - 67.1 °F 100% 29.80 in 10.0 mi SE 6.9 mph - N/A   Partly Cloudy
9:58 AM 70.7 °F - 69.6 °F 96% 29.81 in 10.0 mi SE 5.8 mph - N/A   Overcast
10:58 AM 74.8 °F - 69.6 °F 84% 29.80 in 10.0 mi Variable 3.5 mph - N/A   Mostly Cloudy
11:58 AM 76.5 °F - 66.4 °F 71% 29.80 in 10.0 mi SW 11.5 mph - N/A   Scattered Clouds
12:58 PM 78.4 °F - 67.5 °F 69% 29.78 in 10.0 mi SW 9.2 mph - N/A   Partly Cloudy
1:58 PM 80.2 °F 82.6 °F 67.3 °F 64% 29.77 in 10.0 mi West 10.4 mph - N/A   Partly Cloudy
2:58 PM 81.0 °F 83.6 °F 67.6 °F 64% 29.75 in 10.0 mi WSW 12.7 mph 19.6 mph N/A   Partly Cloudy
3:58 PM 80.1 °F 82.6 °F 67.8 °F 66% 29.75 in 10.0 mi West 10.4 mph - N/A   Partly Cloudy
4:58 PM 77.7 °F - 67.6 °F 71% 29.75 in 10.0 mi Variable 6.9 mph - N/A   Partly Cloudy
5:16 PM 78.8 °F - 68.0 °F 69% 29.73 in 10.0 mi SW 3.5 mph - N/A   Drizzle
5:31 PM 78.8 °F - 68.0 °F 69% 29.73 in 10.0 mi SW 4.6 mph - N/A   Partly Cloudy
5:58 PM 79.2 °F - 69.1 °F 71% 29.72 in 10.0 mi SSW 6.9 mph - 0.00 in   Partly Cloudy
6:58 PM 80.1 °F 82.3 °F 67.1 °F 64% 29.69 in 10.0 mi South 10.4 mph - N/A   Clear
7:58 PM 79.2 °F - 66.6 °F 65% 29.68 in 10.0 mi SSE 10.4 mph - N/A   Clear
8:58 PM 75.4 °F - 67.1 °F 75% 29.65 in 10.0 mi SSE 10.4 mph - N/A   Clear
9:58 PM 75.6 °F - 64.9 °F 69% 29.63 in 10.0 mi SSE 13.8 mph - N/A   Scattered Clouds
10:24 PM 75.2 °F - 64.4 °F 69% 29.66 in 10.0 mi SSW 17.3 mph - N/A   Mostly Cloudy
10:25 PM 77.0 °F - 64.4 °F 65% 29.67 in 10.0 mi WSW 13.8 mph - N/A   Mostly Cloudy
10:58 PM 73.6 °F - 66.0 °F 77% 29.69 in 10.0 mi WSW 9.2 mph 20.7 mph N/A   Mostly Cloudy
11:10 PM 73.4 °F - 64.4 °F 73% 29.71 in 10.0 mi SW 18.4 mph 25.3 mph N/A   Light Drizzle
11:38 PM 71.6 °F - 64.4 °F 78% 29.70 in 10.0 mi SW 10.4 mph 18.4 mph N/A   Mostly Cloudy
11:58 PM 71.8 °F - 64.2 °F 77% 29.69 in 10.0 mi SSW 10.4 mph - 0.00 in   Scattered Clouds